7 * 24
多渠道服务支持
STARLINK-34804是美国SpaceX公司星链(Starlink)星座的卫星,于2025年7月30日发射。星链计划旨在依托低地球轨道构建全球卫星互联网,为全球偏远、欠发达地区提供高速低延迟宽带服务,该卫星是SpaceX持续推进星座组网的组成部分,助力星链扩容与技术迭代,目前星链已有超七千九百颗卫星在轨运行,平均下载速度超200Mbps。
美国
(US)
| 数据来源 | 国际轨道数据 |
| 星历时间: | 2026-09-12T07:43:54+0800 1天前 查看轨道信息 |
| 半长轴: | 6840.843km |
| 偏心率: | 0.0001464 |
| 轨道倾角: | 53.158° |
| 近地点辐角 | 98.154° |
| 升交点赤经 | 147.404° |
| 平近点角 | 261.963° |
| 近地点: | 461.704km |
| 远地点: | 463.708km |
| 周期: | 93.848分钟 |
| 每日圈数: | 15.343994 |